Weather in Porto Santo

Portugal     33°04′06″N   16°20′32″W
temp.,
°C
wind,
m/s
gust,
m/s
humid.,
%
clouds,
%
prec.,
mm/h
press.,
hPa
HPBL,
m
15 may, sat
sat1501:00+19n810760 0.0 1022649
04:00+19n79760 0.0 1021616
07:00+19n89780 0.0 1021648
10:00+19n810780 0.0 1022606
13:00+19nne810780 0.0 1021476
16:00+19n810800 0.0 1020555
19:00+19n710830 0.0 1020510
22:00+19n710840 0.0 1021524
16 may, sun
sun1601:00+19n710840 0.0 1021489
04:00+19n69840 0.0 1020429
07:00+19n79860 0.0 1020444
10:00+19n69870 0.0 1021427
13:00+19nne69860 0.0 1022435
16:00+20n69850 0.0 1021425
19:00+20n710850 0.0 1021439
22:00+19n69860 0.0 1022341
17 may, mon
mon1701:00+19n69875 0.0 1022419
04:00+19nne79860 0.0 1022486
07:00+19nne67830 0.0 1022432
10:00+19nne67820 0.0 1023429
13:00+19nne56810 0.0 1024397
16:00+20nne678042 0.0 1023421
19:00+20nne688363 0.0 1023486
22:00+19nne688651 0.0 1025407
18 may, tue
tue1801:00+19nne79868 0.0 1024516
04:00+19ne688325 0.0 1024475
07:00+19nne68832 0.0 1024511
10:00+19ne798714 0.0 1025579
13:00+19ne798721 0.0 1025515
16:00+19ne788616 0.0 1025539
19:00+19ne89868 0.0 1024575
22:00+19nne798435 0.0 1025550
19 may, wed
wed1901:00+19nne8108511 0.0 1024566
04:00+19nne898316 0.0 1023571
07:00+19ne810810 0.0 1023562
10:00+19nne911780 0.0 1023511
13:00+19nne912780 0.0 1023487
16:00+19nne811750 0.0 1022506
19:00+19nne812794 0.0 1022505
22:00+19nne1014805 0.0 1023525